Regional Weather Roundup
Issued by NWS

Home | Current Version | Previous Version | Graphics & Text | Print | Product List | Glossary On
Versions: 1 2 3 4 5 6 7 8 9 10 11 12 13 14 15 16 17 18 19 20 21 22 23 24 25 26 27 28 29 30 31 32 33 34 35 36 37 38 39 40 41 42 43 44 45 46 47 48 49 50
000
ASUS43 KLSX 252159
RWRMO

WEATHER SUMMARY FOR MISSOURI
NATIONAL WEATHER SERVICE SPRINGFIELD MO
400 PM CST SUN JAN 25 2015

NOTE: "FAIR" INDICATES FEW OR NO CLOUDS BELOW 12,000 FEET WITH NO
       SIGNIFICANT WEATHER AND/OR OBSTRUCTIONS TO VISIBILITY.
       CURRENT SKY AND/OR WEATHER CONDITIONS ARE NOT AVAILABLE FOR
       CHILLICOTHE AND FARMINGTON.

MOZ001>031-035>038-043-044-053-054-252300-
...NORTHERN AND WESTERN MISSOURI...

CITY           SKY/WX    TMP DP  RH WIND       PRES   REMARKS
KANSAS CTY INT CLOUDY    38  32  79 N16       29.97R WCI  29
KANSAS C DTWN  CLOUDY    40  32  73 N15G23    29.96R
LEE`S SUMMIT   CLOUDY    38  31  76 N18       29.95R WCI  28
ST JOSEPH      CLOUDY    38  33  82 N18       30.01R WCI  28
CHILLICOTHE      N/A     35  30  82 N13G22    29.96R WCI  26
KIRKSVILLE     CLOUDY    31  29  92 N16G29    29.92R WCI  20

$$
MOZ066>068-077>081-088>096-101>105-252300-
...SOUTHWEST MISSOURI...

CITY           SKY/WX    TMP DP  RH WIND       PRES   REMARKS
SPRINGFIELD    CLOUDY    38  34  85 NW17G29   29.86R FOG     WCI  28
JOPLIN         CLOUDY    42  32  67 NW21G32   29.95R

$$
MOZ032>034-039>042-045>050-055>058-069>072-252300-
...CENTRAL MISSOURI...

CITY           SKY/WX    TMP DP  RH WIND       PRES   REMARKS
COLUMBIA       MIX PCPN  36  35  96 N24       29.82R WCI  24
JEFFERSON CITY CLOUDY    37  34  89 N15G22    29.82R WCI  28
ROLLA          RAIN      37  35  92 NW13      29.73R WCI  29
SEDALIA        CLOUDY    37  32  82 N23G35    29.89R WCI  26
OSAGE BEACH    CLOUDY    37  34  87 NW7G18    29.81R

$$
MOZ051-052-059>065-252300-
...EAST CENTRAL MISSOURI...

CITY           SKY/WX    TMP DP  RH WIND       PRES   REMARKS
ST LOUIS INTL  LGT RAIN  40  36  86 N18G24    29.72R FOG
SPIRIT OF STL  LGT RAIN  40  36  86 N14G21    29.73R
ST CHARLES     CLOUDY    37  35  92 N16G24    29.75R WCI  28

$$
MOZ072>076-082>087-097>100-106>115-252300-
...SOUTH CENTRAL AND SOUTHEAST MISSOURI...

CITY           SKY/WX    TMP DP  RH WIND       PRES   REMARKS
CAPE GIRARDEAU CLOUDY    46  44  93 SW7       29.65R
FARMINGTON     CLOUDY    43  37  81 MISG      29.70R
POPLAR BLUFF   CLOUDY    47  41  80 W12       29.68R
WEST PLAINS    CLOUDY    39  33  79 W17G25    29.77R WCI  30

$$


USA.gov is the U.S. government's official web portal to all federal, state and local government web resources and services.